Regional Weather Roundup
Issued by NWS Wakefield, VA

Home | Current Version | Previous Version | Graphics & Text | Print | Product List | Glossary On
Versions: 1 2 3 4 5 6 7 8 9 10 11 12 13 14 15 16 17 18 19 20 21 22 23 24 25 26 27 28 29 30 31 32 33 34 35 36 37 38 39 40 41 42 43 44 45 46 47
200
ASUS41 KAKQ 090115
RWRAKQ

REGIONAL WEATHER ROUNDUP
NATIONAL WEATHER SERVICE WAKEFIELD VA
800 PM EST MON FEB 08 2016

Note: "fair" indicates few or no clouds below 12,000 feet with no
significant weather and/or obstructions to visibility. * = Denotes
station may not report precipitation (e.g., rain,snow,etc.),
thunder or fog.

VAZ042-051-052>054-056-090200-
NORTHERN VIRGINIA

CITY           SKY/WX    TMP DP  RH WIND       PRES   REMARKS
WASH NATIONAL  LGT RAIN  41  33  73 S14       29.72S
DULLES         CLOUDY    41  28  60 SE8       29.69S
FORT BELVOIR   DRIZZLE   41  32  70 SE9       29.71S
QUANTICO       CLOUDY    42  33  70 SE10      29.71F
FREDERICKSBRG* FAIR      41  33  72 E6        29.69F
STAFFORD*      MOCLDY    40  32  70 E7        29.73F
WARRENTON      CLOUDY    42  32  68 SE3       29.67F
CULPEPER*      CLOUDY    41  28  60 CALM      29.68F
MANASSAS*      CLOUDY    41  32  70 SE9       29.70S
LEESBURG*      CLOUDY    43  32  65 S7        29.69S
WINCHESTER     CLOUDY    41  28  60 S9        29.64S
FRONT ROYAL*   CLOUDY    39  30  70 S5        29.64S
LURAY*         CLOUDY    37  32  81 SW5       29.64F
$$

VAZ048-049-060>072-079>083-090200-
CENTRAL AND SOUTH CENTRAL VIRGINIA

CITY           SKY/WX    TMP DP  RH WIND       PRES   REMARKS
RICHMOND       FAIR      39  32  76 E10       29.69F
CHESTERFIELD*  CLOUDY   N/A N/A N/A E7        29.69F
PETERSBURG*    MIX PCPN  42  30  62 E3        29.69S
HANOVER        MOCLDY    41  31  67 E6        29.70F
TAPPAHANNOCK*  FAIR      40  33  74 E7        29.72F
QUINTON*       FAIR      38  33  81 SE5       29.70S
CHARLOTTSVILLE LGT RAIN  40  34  79 CALM      29.66F
GORDONSVILLE*  CLOUDY    41  35  80 CALM      29.67S
ORANGE*        DRIZZLE   41  32  70 CALM      29.69S
LOUISA*        DRIZZLE   43  32  65 CALM      29.66S
BUMPASS*       CLOUDY    41  31  68 MISG      29.67F
FARMVILLE*     LGT RAIN  40  40 100 CALM      29.66F
CREWE*         CLOUDY    41  40  96 CALM      29.67S
FORT PICKETT*  CLOUDY    41  40  95 SW5       29.68R
CHASE CITY*    CLOUDY    40  39  95 CALM      29.66F
CLARKSVILLE*   FAIR      41  37  87 CALM      29.66F
SOUTH HILL*    CLOUDY    42  38  86 S6        29.74R
LAWRENCEVILLE* CLOUDY    44  36  74 CALM      29.68S
EMPORIA*       LGT RAIN  45  34  65 SE6       29.71S
$$

VAZ088>098-090200-
SOUTHEAST VIRGINIA

CITY           SKY/WX    TMP DP  RH WIND       PRES   REMARKS
NORFOLK        CLOUDY    42  34  73 E6        29.72S
VIRGINIA BEACH CLOUDY    45  36  70 E9        29.72S
NORFOLK NAVAL  MOCLDY    42  35  76 E7        29.73S
WEST POINT*    FAIR      40  34  80 SE8       29.73S
SALUDA*        NOT AVBL
NEWPORT NEWS   MOCLDY    40  35  83 E8        29.72S
LANGLEY AFB    MOCLDY    41  36  81 E9        29.72R
FORT EUSTIS    FAIR      41  33  72 SE8       29.70F
WILLIAMSBURG*  FAIR      43  37  81 E8        29.72F
HR EXEC AP*    CLOUDY    39  34  81 E6        29.73F
FRANKLIN*      CLOUDY    40  34  79 E5        29.71S
US460-WAKEFLD  MOCLDY    41  34  76 E5        29.70F
$$

VAZ020-022-025-037-045-090200-
WEST CENTRAL AND SOUTHWEST VIRGINIA

CITY           SKY/WX    TMP DP  RH WIND       PRES   REMARKS
STAUNTON*      CLOUDY    40  36  86 CALM      29.65S
WAYNESBORO*    CLOUDY    35  32  90 SE3       29.63R
HOT SPRINGS VA LGT SNOW N/A N/A N/A CALM      29.53F
LYNCHBURG      FAIR      32  32 100 CALM      29.67R FOG
DANVILLE       FAIR      34  32  92 CALM      29.67S FOG
SOUTH BOSTON*  FAIR      39  37  89 CALM      29.67S
MARTINSVILLE   FAIR      27  26  99 CALM      29.69S
ROANOKE        CLOUDY    35  34  96 SW3       29.68R
BLACKSBURG     MOCLDY    32  30  92 W3        29.67S
DUBLIN*        FAIR      33  29  85 W6        29.67R
MARION*        FLURRIES  32  28  84 W6        29.67S
HILLSVILLE*    FAIR      31  26  80 W12G20    29.62R WCI  22
RICHLANDS*     CLOUDY    30  26  83 SW3       29.65S
WISE*          CLOUDY    32  23  69 SW7       29.66S
ABINGDON*      FLURRIES  34  31  87 SW7       29.68S
$$

MDZ021>025-VAZ099-100-090200-
SOUTHERN MARYLAND AND THE DELMARVA PENINSULA

CITY           SKY/WX    TMP DP  RH WIND       PRES   REMARKS
PATUXENT RIVER LGT RAIN  39  33  79 SE14      29.73S
BAY BRIDGE APT DRIZZLE   41  32  70 SE7       29.74R
LEONARDTOWN    CLOUDY    37  32  81 SE3       29.75S
DOVER          LGT RAIN  36  36 100 E10       29.75R
GEORGETOWN     MIX PCPN  36  34  92 SE5       29.77R
EASTON         DRIZZLE   41  36  81 S6        29.77S
CAMBRIDGE      MOCLDY    37  32  81 SE10      29.74S
SALISBURY      LGT RAIN  38  34  85 E8        29.76S
OCEAN CITY     CLOUDY    38  33  82 SE5       29.77S
WALLOPS ISLAND CLOUDY    39  33  79 E7        29.76F
ACCOMACK*      CLOUDY    37  32  81 SE7       29.74S
$$

NCZ012>017-030>032-090200-
NORTH CENTRAL AND EASTERN NORTH CAROLINA

CITY           SKY/WX    TMP DP  RH WIND       PRES   REMARKS
ROANOKE RAPIDS LGT RAIN  43  39  87 SW5       29.71R
RALEIGH        MOCLDY    41  38  89 S3        29.68S
ELIZABETH CITY CLOUDY    43  37  79 E12       29.71F
AHOSKIE*       CLOUDY    45  32  60 CALM      29.70R
EDENTON*       MOCLDY    45  39  81 E7        29.70F
CURRITUCK*     CLOUDY    43  37  80 SE5       29.73S
KILL DEVIL HLS MOCLDY    43  36  77 E6        29.71S HAZE
MANTEO         MOCLDY    42  38  83 E7        29.72S
CAPE HATTERAS  MOCLDY    42  35  76 E5        29.71F
TARBORO*       RAIN      47  38  71 W12       29.71R
GOLDSBORO      LGT RAIN  43  43 100 W8        29.71R
WASHINGTON     CLOUDY    46  35  64 CALM      29.68S
GREENVILLE     CLOUDY    48  34  57 CALM      29.72R
NEW BERN       MOCLDY    42  36  79 CALM      29.69F
WILMINGTON     CLOUDY    50  39  66 NW16      29.73R
$$

VAZ048-090200-
ELSEWHERE

CITY           SKY/WX    TMP DP  RH WIND       PRES   REMARKS
HARRISBURG PA  LGT RAIN  36  31  82 SE8       29.70S
BALTIMORE      DRIZZLE   40  30  67 SE5       29.71S
ANNAPOLIS      LGT RAIN  40  34  79 S7        29.73R
ANDREWS AFB    LGT RAIN  39  32  76 SE10      29.70S
PHILADELPHIA   CLOUDY    37  24  59 E9        29.77R
HENDERSON NC   PTCLDY    41  32  70 S5        29.66F
GREENSBORO     PTCLDY    37  34  89 W3        29.65S
ROCKY MOUNT    LGT RAIN  43  41  93 SW3       29.72R FOG
$$

VAZ100-090200-
MARINE

STATION/POSITION TIME  TEMP    WIND        PRES    WAVE   SWELL
                       AIR SEA DIR/SP/G            HT/PER HT/PER
                 (UTC) (F)     (DEG/KT/KT) (MB)    (FT/S) (FT/S)
BRANDYWINE LGT   0000   36     120/ 16/ 17 1007.7R
CAPE MAY NJ      0000   36 43   80/  9/ 12 1007.7R
LEWES DE         0000   37 41  120/  7/ 10 1007.8R
15NM E FENWICK I 0050   38 44              1007.5F  13/14
OCEAN-CITY-INLET 0000   38 42  110/  6/ 11 1007.0F
WACHAPREAGUE VA  0000   41 43  100/ 11/ 13 1007.5R
THOMAS POINT MD  0000   40 39  130/  7/  8 1007.2
GOOSES REEF MD   0100   40 40  170/ 14/ 17 1007.8R   2/ 3
COVE POINT MD    0000   39     180/ 15/ 18 1007.4R
SOLOMONS ISLAND  0000   40 42  150/ 14/ 17   N/A
BISHOPS HEAD MD  0000   40 41  130/ 13/ 15 1006.3R
PINEY POINT MD   0000          160/ 16/ 17   N/A
POTOMAC MD       0100   40 41  140/ 14/ 16 1005.7F   2/ 3
CAMBRIDGE MD     0000   41 40  160/  5/ 10 1006.3R
LEWISETTA VA     0000   40 41  160/ 11/ 14 1006.7R
RAPPAHANNOCK LGT 0000           90/ 12/ 14 1007.0F
STINGRAY PT      0100   41 42  120/ 14/ 16 1006.4F   2/ 3
YORK RVR RNG VA  0000   41     120/ 13/ 15 1005.9S
YORKTOWN VA      0000   41 43  110/ 10/ 12 1006.5R
JAMESTOWN VA     0100   41 44  100/ 10/ 14   N/A     1/ 3
DOMINION TERM VA 0000   42     100/  9/ 13 1006.3F
KIPTOPEKE VA     0000      43  110/  7/ 12   N/A
CHES BAY BRIDGE  0000   42 44   80/ 13/ 16 1006.1F
CAPE HENRY VA    0000   42     110/ 12/ 15   N/A
CHESAPEAKE LGHT  0000   42      90/ 14/ 15 1007.3F
WILLOUBY STN VA  0000   42     110/ 13/ 15   N/A
CAPE HENRY BUOY  0028      45                N/A     8/13   5/13
1ST LANDING BUOY 0100      44                N/A     6/ 8
CAPE CHARLES BUO 0026      45                N/A     8/14   8/14
OFFSHORE WE BUOY 0021      47                N/A     9/13  10/13
64NM E OF VA BCH 0050   45 52   80/  4/  8 1007.0F  15/16  15/16
DUCK PIER NC     0000   43     110/ 12/ 13 1006.0F
44100 DUCK FRF   0024      47                N/A    13/13  11/13
44056 DUCK FRF   0011      44                N/A    11/15  10/15
OREGON INLET NC  0000   43 45  100/  7/ 10 1006.6F
HATTERAS NC      0000   46 51   90/  6/  8 1005.5F
DIAMOND SHLS NC  0050   58 74  220/ 14/ 19 1005.3C1F1C2F2C3F3C4F4C5F5C6F6C7F7C8M1C9!



USA.gov is the U.S. government's official web portal to all federal, state and local government web resources and services.